Location: Albuquerque Trailhead
(34.7934°N, 106.3736°W)
Time: 09:50:34
(UTC+00:00)

Exosat Rocket - Pass Details

Date: 25 October 2021
Orbit: 759 x 2516 km, 72.3° (Epoch: 08 December)

Event Time Altitude Azimuth Distance (km) Brightness Sun altitude
Rises 09:18:20 0° 137° (SE) 4,351 7.5 -49.5°
Reaches altitude 10° 09:22:22 10° 116° (ESE) 3,696 7.3 -48.7°
Maximum altitude 09:27:29 16° 83° (E) 3,601 7.3 -47.8°
Drops below altitude 10° 09:33:25 10° 51° (NE) 4,473 7.9 -46.6°
Sets 09:39:05 0° 33° (NNE) 5,787 8.5 -45.5°
